Regional Weather Roundup
Issued by NWS Raleigh/Durham, NC

Home | Current Version | Previous Version | Text Only | Print | Product List | Glossary On
Versions: 1 2 3 4 5 6 7 8 9 10 11 12 13 14 15 16 17 18 19 20 21 22 23 24 25 26 27 28 29 30 31 32 33 34 35 36 37 38 39 40 41 42 43 44 45 46 47 48 49 50
000
ASUS42 KRAH 210110
RWRRAH
NORTH CAROLINA WEATHER ROUNDUP
NATIONAL WEATHER SERVICE RALEIGH NC
800 PM EST SAT DEC 20 2014

NOTE: "FAIR" INDICATES FEW OR NO CLOUDS BELOW 12,000 FEET WITH NO
SIGNIFICANT WEATHER AND/OR OBSTRUCTIONS TO VISIBILITY.

NCZ001-053-055-056-065-067-210200-
WESTERN NORTH CAROLINA

CITY           SKY/WX    TMP DP  RH WIND       PRES   REMARKS
ASHEVILLE      CLOUDY    40  37  89 S9        30.19R WCI  34
JEFFERSON      LGT RAIN  34  30  85 CALM      30.16R
MORGANTON      CLOUDY    41  36  81 CALM      30.27S
HICKORY        CLOUDY    42  33  70 CALM      30.22R
RUTHERFORDTON  CLOUDY    42  38  86 CALM      30.24R
MOUNT AIRY     CLOUDY    40  32  74 CALM      30.24S
BOONE          CLOUDY    34  32  92 CALM      30.17R
$$

NCZ021-022-025-041-071-084-088-210200-
CENTRAL NORTH CAROLINA

CITY           SKY/WX    TMP DP  RH WIND       PRES   REMARKS
CHARLOTTE      CLOUDY    44  33  65 SE8       30.24R
GREENSBORO     CLOUDY    36  32  85 SE3       30.24R
WINSTON-SALEM  CLOUDY    38  31  76 SE3       30.25R
RALEIGH-DURHAM CLOUDY    37  34  89 E3        30.28S FOG
FORT BRAGG     CLOUDY    38  36  94 NE1       30.27S
FAYETTEVILLE   CLOUDY    38  36  92 NE5       30.27S WCI  34
BURLINGTON     MOCLDY    36  32  85 CALM      30.26S
LAURINBURG     CLOUDY    40  37  89 NE8       30.27S WCI  34
$$

NCZ011-015-027-028-043-044-047-080-103-210200-
NORTHEASTERN NORTH CAROLINA

CITY           SKY/WX    TMP DP  RH WIND       PRES   REMARKS
ROCKY MT-WILSO CLOUDY    39  36  89 CALM      30.29S
GREENVILLE     CLOUDY    39  36  87 CALM      30.30R
WASHINGTON     CLOUDY    39  35  84 CALM      30.30R
ELIZABETH CITY CLOUDY    43  31  62 NE5       30.30R
MANTEO         CLOUDY    41  34  76 NE6       30.28S
CAPE HATTERAS  CLOUDY    43  37  79 NE8       30.28R
$$

NCZ078-087-090-091-093-098-101-210200-
SOUTHEASTERN NORTH CAROLINA

CITY           SKY/WX    TMP DP  RH WIND       PRES   REMARKS
LUMBERTON      CLOUDY    41  38  89 NE6       30.27S FOG
GOLDSBORO      CLOUDY    40  39  98 CALM      30.28R
KINSTON        CLOUDY    39  37  93 CALM      30.30R
KENANSVILLE    CLOUDY    38  38  97 CALM      30.29F
NEW BERN       CLOUDY    42  37  82 NE7       30.29S
CHERRY POINT   CLOUDY    41  37  86 N6        30.29S
BEAUFORT       CLOUDY    40  37  89 N6        30.27F
JACKSONVILLE   MOCLDY    39  37  92 N7        30.28S WCI  34
WILMINGTON     CLOUDY    41  39  93 NE7       30.26S
$$



USA.gov is the U.S. government's official web portal to all federal, state and local government web resources and services.